• In Lithuania
  • List of Countries
  • For 7 days
  • Water Temperature
  • Satellite Maps
  • Weather Map
  • Weather Widgets
  • user-avatar
    Login

    Hourly Weather Kendzhe-Kulak

    Today, 17 October, Wednesday

    Time Temperature Precipitation Wind Pressure Humidity
    00:00 +13°C° 0 mm 3 mps 758 mmHg 67%
    01:00 +13°C° 0 mm 3 mps 758 mmHg 70%
    02:00 +13°C° 0 mm 3 mps 758 mmHg 73%
    03:00 +12°C° 0 mm 3 mps 758 mmHg 77%
    04:00 +12°C° 0 mm 3 mps 758 mmHg 81%
    05:00 +11°C° 0 mm 3 mps 758 mmHg 84%
    06:00 +11°C° 0 mm 3 mps 758 mmHg 88%
    07:00 +12°C° 0 mm 3 mps 758 mmHg 84%
    08:00 +14°C° 0 mm 3 mps 758 mmHg 80%
    09:00 +15°C° 0 mm 4 mps 758 mmHg 74%
    10:00 +18°C° 0 mm 4 mps 758 mmHg 67%
    11:00 +19°C° 0 mm 4 mps 758 mmHg 61%
    12:00 +20°C° 0 mm 5 mps 758 mmHg 55%
    13:00 +21°C° 0 mm 5 mps 757 mmHg 53%
    14:00 +21°C° 0 mm 4 mps 757 mmHg 51%
    15:00 +22°C° 0 mm 4 mps 757 mmHg 49%
    16:00 +20°C° 0 mm 4 mps 757 mmHg 54%
    17:00 +19°C° 0 mm 4 mps 757 mmHg 58%
    18:00 +18°C° 0 mm 3 mps 757 mmHg 63%
    19:00 +17°C° 0 mm 3 mps 756 mmHg 67%
    20:00 +17°C° 0 mm 3 mps 756 mmHg 70%
    21:00 +16°C° 0 mm 3 mps 756 mmHg 74%
    22:00 +14°C° 0 mm 3 mps 756 mmHg 79%
    23:00 +14°C° 0 mm 3 mps 756 mmHg 84%

    Tomorrow, 18 October, Thursday

    Time Temperature Precipitation Wind Pressure Humidity
    00:00 +13°C° 0 mm 3 mps 756 mmHg 89%
    01:00 +13°C° 0 mm 3 mps 756 mmHg 91%
    02:00 +14°C° 0 mm 2 mps 756 mmHg 93%
    03:00 +13°C° 0 mm 2 mps 756 mmHg 94%
    04:00 +13°C° 0 mm 2 mps 756 mmHg 95%
    05:00 +13°C° 0 mm 2 mps 756 mmHg 95%
    06:00 +13°C° 0 mm 2 mps 756 mmHg 95%
    07:00 +13°C° 0 mm 3 mps 756 mmHg 90%
    08:00 +14°C° 0 mm 3 mps 756 mmHg 85%
    09:00 +15°C° 0 mm 4 mps 756 mmHg 80%
    10:00 +17°C° 0 mm 4 mps 756 mmHg 72%
    11:00 +18°C° 0 mm 4 mps 756 mmHg 65%
    12:00 +20°C° 0 mm 4 mps 756 mmHg 58%
    13:00 +20°C° 0 mm 4 mps 756 mmHg 55%
    14:00 +21°C° 0 mm 4 mps 755 mmHg 51%
    15:00 +21°C° 0 mm 5 mps 755 mmHg 48%
    16:00 +20°C° 0 mm 4 mps 755 mmHg 53%
    17:00 +19°C° 0 mm 4 mps 755 mmHg 57%
    18:00 +18°C° 0 mm 3 mps 755 mmHg 61%
    19:00 +17°C° 0 mm 3 mps 755 mmHg 63%
    20:00 +17°C° 0 mm 4 mps 755 mmHg 65%
    21:00 +15°C° 0 mm 4 mps 755 mmHg 67%
    22:00 +14°C° 0 mm 4 mps 755 mmHg 72%
    23:00 +14°C° 0 mm 4 mps 755 mmHg 76%

    Day after tomorrow, 19 October, Friday

    Time Temperature Precipitation Wind Pressure Humidity
    00:00 +13°C° 0 mm 4 mps 754 mmHg 81%
    01:00 +13°C° 0 mm 4 mps 754 mmHg 84%
    02:00 +13°C° 0 mm 4 mps 754 mmHg 88%
    03:00 +12°C° 0 mm 4 mps 754 mmHg 91%
    04:00 +12°C° 0 mm 4 mps 754 mmHg 92%
    05:00 +12°C° 0 mm 4 mps 754 mmHg 92%
    06:00 +12°C° 0 mm 4 mps 754 mmHg 93%
    07:00 +13°C° 0 mm 5 mps 754 mmHg 88%
    08:00 +14°C° 0 mm 6 mps 754 mmHg 83%
    09:00 +15°C° 0 mm 7 mps 754 mmHg 78%
    10:00 +16°C° 0 mm 7 mps 754 mmHg 73%
    11:00 +17°C° 0 mm 6 mps 754 mmHg 68%
    12:00 +20°C° 0 mm 6 mps 754 mmHg 63%
    13:00 +20°C° 0 mm 6 mps 753 mmHg 60%
    14:00 +21°C° 0 mm 6 mps 753 mmHg 57%
    15:00 +22°C° 0 mm 6 mps 753 mmHg 55%
    16:00 +20°C° 0 mm 6 mps 753 mmHg 59%
    17:00 +19°C° 0 mm 5 mps 753 mmHg 64%
    18:00 +17°C° 0 mm 5 mps 752 mmHg 69%
    19:00 +17°C° 0 mm 5 mps 752 mmHg 72%
    20:00 +16°C° 0 mm 5 mps 752 mmHg 75%
    21:00 +15°C° 0 mm 6 mps 752 mmHg 79%
    22:00 +15°C° 0 mm 5 mps 752 mmHg 83%
    23:00 +14°C° 0 mm 5 mps 752 mmHg 86%

    20 October, Saturday

    Time Temperature Precipitation Wind Pressure Humidity
    00:00 +14°C° 0 mm 5 mps 751 mmHg 90%
    01:00 +13°C° 0 mm 4 mps 751 mmHg 92%
    02:00 +13°C° 0 mm 4 mps 751 mmHg 93%
    03:00 +13°C° 0 mm 3 mps 751 mmHg 95%
    04:00 +13°C° 0 mm 3 mps 751 mmHg 93%
    05:00 +13°C° 0 mm 3 mps 751 mmHg 91%
    06:00 +14°C° 0 mm 3 mps 751 mmHg 89%
    07:00 +14°C° 0 mm 3 mps 751 mmHg 86%
    08:00 +16°C° 0 mm 3 mps 751 mmHg 82%
    09:00 +16°C° 0 mm 3 mps 751 mmHg 78%
    10:00 +18°C° 0 mm 2 mps 751 mmHg 70%
    11:00 +19°C° 0 mm 2 mps 750 mmHg 62%
    12:00 +22°C° 0 mm 1 mps 750 mmHg 54%
    13:00 +23°C° 0 mm 1 mps 750 mmHg 51%
    14:00 +23°C° 0 mm 1 mps 750 mmHg 47%
    15:00 +24°C° 0 mm 1 mps 750 mmHg 44%
    16:00 +23°C° 0 mm 1 mps 750 mmHg 48%
    17:00 +22°C° 0 mm 1 mps 750 mmHg 52%
    18:00 +21°C° 0 mm 1 mps 750 mmHg 56%
    19:00 +20°C° 0 mm 1 mps 750 mmHg 56%
    20:00 +20°C° 0 mm 1 mps 750 mmHg 57%
    21:00 +20°C° 0 mm 1 mps 750 mmHg 57%
    22:00 +20°C° 0 mm 1 mps 750 mmHg 58%
    23:00 +19°C° 0 mm 1 mps 750 mmHg 59%

    21 October, Sunday

    Time Temperature Precipitation Wind Pressure Humidity
    00:00 +19°C° 0 mm 1 mps 750 mmHg 60%
    01:00 +18°C° 0 mm 1 mps 749 mmHg 61%
    02:00 +18°C° 0 mm 1 mps 749 mmHg 62%
    03:00 +16°C° 0 mm 1 mps 749 mmHg 63%
    04:00 +16°C° 0 mm 1 mps 749 mmHg 63%
    05:00 +16°C° 0 mm 1 mps 750 mmHg 64%
    06:00 +15°C° 0 mm 0 mps 750 mmHg 65%
    07:00 +16°C° 0 mm 0 mps 750 mmHg 60%
    08:00 +18°C° 0 mm 0 mps 750 mmHg 54%
    09:00 +19°C° 0 mm 0 mps 750 mmHg 49%
    10:00 +20°C° 0 mm 0 mps 750 mmHg 46%
    11:00 +23°C° 0 mm 1 mps 750 mmHg 42%
    12:00 +25°C° 0 mm 1 mps 750 mmHg 39%
    13:00 +25°C° 0 mm 1 mps 750 mmHg 39%
    14:00 +25°C° 0 mm 2 mps 749 mmHg 38%
    15:00 +26°C° 0 mm 2 mps 749 mmHg 37%
    16:00 +25°C° 0 mm 3 mps 749 mmHg 42%
    17:00 +22°C° 0 mm 3 mps 750 mmHg 46%
    18:00 +21°C° 0 mm 3 mps 750 mmHg 51%
    19:00 +21°C° 0 mm 3 mps 750 mmHg 55%
    20:00 +20°C° 0 mm 3 mps 750 mmHg 59%
    21:00 +19°C° 0 mm 4 mps 750 mmHg 64%
    22:00 +19°C° 0 mm 4 mps 750 mmHg 66%
    23:00 +18°C° 0 mm 3 mps 750 mmHg 69%

    22 October, Monday

    Time Temperature Precipitation Wind Pressure Humidity
    00:00 +18°C° 0 mm 3 mps 750 mmHg 72%
    01:00 +17°C° 0 mm 3 mps 750 mmHg 75%
    02:00 +17°C° 0 mm 3 mps 750 mmHg 78%
    03:00 +17°C° 0 mm 3 mps 750 mmHg 81%
    04:00 +15°C° 0 mm 4 mps 751 mmHg 81%
    05:00 +15°C° 0 mm 4 mps 751 mmHg 81%
    06:00 +15°C° 0 mm 5 mps 751 mmHg 81%
    07:00 +16°C° 0 mm 5 mps 751 mmHg 75%
    08:00 +16°C° 0 mm 5 mps 752 mmHg 69%
    09:00 +17°C° 0 mm 5 mps 752 mmHg 63%
    10:00 +19°C° 0 mm 6 mps 752 mmHg 56%
    11:00 +20°C° 0 mm 6 mps 752 mmHg 49%
    12:00 +21°C° 0 mm 6 mps 752 mmHg 42%
    13:00 +21°C° 0 mm 6 mps 752 mmHg 38%
    14:00 +22°C° 0 mm 6 mps 752 mmHg 34%
    15:00 +22°C° 0 mm 6 mps 752 mmHg 30%
    16:00 +21°C° 0 mm 5 mps 752 mmHg 30%
    17:00 +20°C° 0 mm 5 mps 752 mmHg 31%
    18:00 +19°C° 0 mm 4 mps 752 mmHg 32%
    19:00 +19°C° 0 mm 4 mps 753 mmHg 33%
    20:00 +18°C° 0 mm 4 mps 753 mmHg 34%
    21:00 +18°C° 0 mm 4 mps 753 mmHg 35%
    22:00 +17°C° 0 mm 4 mps 752 mmHg 37%
    23:00 +17°C° 0 mm 3 mps 752 mmHg 40%
    Show more